When you browse on this site, cookies collect data to enhance your experience and personalize the content and advertising you see.
Visit our Privacy Policy to learn more. By continuing to use the site, you agree to this use of cookies and data.
  • In France
  • List of Countries
  • For 7 days
  • Water Temperature
  • Satellite Maps
  • Weather Map
  • Weather Widgets
  • user-avatar
    Login

    Hourly Weather Cobija

    Today, 22 March, Friday

    Time Temperature Precipitation Wind Pressure Humidity
    00:00 +25°C° 0 mm 1 mps 738 mmHg 99%
    01:00 +24°C° 0 mm 1 mps 738 mmHg 99%
    02:00 +24°C° 0.1 mm 1 mps 738 mmHg 99%
    03:00 +24°C° 0.1 mm 1 mps 738 mmHg 99%
    04:00 +24°C° 0.1 mm 1 mps 738 mmHg 99%
    05:00 +24°C° 0.1 mm 1 mps 738 mmHg 98%
    06:00 +24°C° 0.1 mm 1 mps 739 mmHg 98%
    07:00 +25°C° 0.1 mm 1 mps 739 mmHg 97%
    08:00 +27°C° 0 mm 1 mps 739 mmHg 85%
    09:00 +29°C° 0 mm 1 mps 740 mmHg 72%
    10:00 +32°C° 0 mm 1 mps 740 mmHg 60%
    11:00 +31°C° 1.2 mm 1 mps 739 mmHg 71%
    12:00 +30°C° 1.2 mm 1 mps 738 mmHg 82%
    13:00 +29°C° 1.2 mm 1 mps 737 mmHg 93%
    14:00 +29°C° 0.8 mm 1 mps 736 mmHg 91%
    15:00 +30°C° 0.8 mm 1 mps 736 mmHg 90%
    16:00 +30°C° 0.8 mm 1 mps 735 mmHg 88%
    17:00 +29°C° 0.7 mm 1 mps 736 mmHg 91%
    18:00 +25°C° 0.7 mm 0 mps 736 mmHg 95%
    19:00 +24°C° 0.7 mm 0 mps 737 mmHg 98%
    20:00 +24°C° 0.3 mm 0 mps 737 mmHg 98%
    21:00 +24°C° 0.3 mm 0 mps 738 mmHg 98%
    22:00 +23°C° 0.3 mm 0 mps 739 mmHg 98%
    23:00 +23°C° 0 mm 0 mps 738 mmHg 98%

    Tomorrow, 23 March, Saturday

    Time Temperature Precipitation Wind Pressure Humidity
    00:00 +23°C° 0 mm 0 mps 738 mmHg 98%
    01:00 +23°C° 0 mm 0 mps 738 mmHg 98%
    02:00 +23°C° 1.1 mm 0 mps 738 mmHg 98%
    03:00 +23°C° 1.1 mm 0 mps 738 mmHg 98%
    04:00 +23°C° 1.1 mm 0 mps 738 mmHg 98%
    05:00 +23°C° 1.4 mm 0 mps 738 mmHg 98%
    06:00 +23°C° 1.4 mm 0 mps 739 mmHg 98%
    07:00 +23°C° 1.4 mm 0 mps 740 mmHg 97%
    08:00 +24°C° 0.9 mm 0 mps 740 mmHg 97%
    09:00 +25°C° 0.9 mm 0 mps 740 mmHg 96%
    10:00 +28°C° 0.9 mm 1 mps 741 mmHg 95%
    11:00 +28°C° 0.9 mm 1 mps 740 mmHg 92%
    12:00 +29°C° 0.9 mm 1 mps 739 mmHg 89%
    13:00 +30°C° 0.9 mm 1 mps 739 mmHg 85%
    14:00 +28°C° 1 mm 0 mps 738 mmHg 85%
    15:00 +28°C° 1 mm 0 mps 737 mmHg 86%
    16:00 +28°C° 1 mm 0 mps 736 mmHg 86%
    17:00 +26°C° 0.3 mm 0 mps 737 mmHg 90%
    18:00 +25°C° 0.3 mm 0 mps 737 mmHg 93%
    19:00 +24°C° 0.3 mm 0 mps 738 mmHg 97%
    20:00 +24°C° 0.6 mm 0 mps 738 mmHg 97%
    21:00 +23°C° 0.6 mm 0 mps 739 mmHg 98%
    22:00 +23°C° 0.6 mm 0 mps 739 mmHg 99%
    23:00 +23°C° 0.8 mm 0 mps 739 mmHg 99%

    Day after tomorrow, 24 March, Sunday

    Time Temperature Precipitation Wind Pressure Humidity
    00:00 +23°C° 0.8 mm 0 mps 739 mmHg 99%
    01:00 +23°C° 0.8 mm 0 mps 738 mmHg 99%
    02:00 +23°C° 0.9 mm 0 mps 738 mmHg 99%
    03:00 +22°C° 0.9 mm 0 mps 738 mmHg 99%
    04:00 +22°C° 0.9 mm 0 mps 737 mmHg 99%
    05:00 +23°C° 0 mm 0 mps 738 mmHg 98%
    06:00 +23°C° 0 mm 0 mps 738 mmHg 98%
    07:00 +23°C° 0 mm 0 mps 739 mmHg 97%
    08:00 +25°C° 0.6 mm 0 mps 739 mmHg 91%
    09:00 +27°C° 0.6 mm 0 mps 739 mmHg 84%
    10:00 +30°C° 0.6 mm 1 mps 739 mmHg 77%
    11:00 +31°C° 0.6 mm 1 mps 738 mmHg 73%
    12:00 +32°C° 0.6 mm 1 mps 737 mmHg 68%
    13:00 +33°C° 0.6 mm 1 mps 736 mmHg 64%
    14:00 +32°C° 2 mm 1 mps 736 mmHg 74%
    15:00 +31°C° 2 mm 1 mps 735 mmHg 84%
    16:00 +30°C° 2 mm 1 mps 734 mmHg 94%
    17:00 +27°C° 0.8 mm 0 mps 735 mmHg 95%
    18:00 +25°C° 0.8 mm 0 mps 735 mmHg 96%
    19:00 +24°C° 0.8 mm 0 mps 736 mmHg 96%
    20:00 +24°C° 0 mm 0 mps 736 mmHg 96%
    21:00 +24°C° 0 mm 0 mps 737 mmHg 97%
    22:00 +24°C° 0 mm 0 mps 737 mmHg 97%
    23:00 +23°C° 0.2 mm 0 mps 737 mmHg 97%

    25 March, Monday

    Time Temperature Precipitation Wind Pressure Humidity
    00:00 +23°C° 0.2 mm 0 mps 737 mmHg 97%
    01:00 +23°C° 0.2 mm 0 mps 736 mmHg 98%
    02:00 +23°C° 0.7 mm 0 mps 736 mmHg 98%
    03:00 +23°C° 0.7 mm 0 mps 736 mmHg 98%
    04:00 +23°C° 0.7 mm 0 mps 736 mmHg 98%
    05:00 +23°C° 1.4 mm 0 mps 737 mmHg 98%
    06:00 +23°C° 1.4 mm 0 mps 737 mmHg 97%
    07:00 +23°C° 1.4 mm 0 mps 738 mmHg 97%
    08:00 +24°C° 0.8 mm 0 mps 738 mmHg 96%
    09:00 +25°C° 0.8 mm 0 mps 739 mmHg 95%
    10:00 +26°C° 0.8 mm 0 mps 739 mmHg 94%
    11:00 +26°C° 0.8 mm 0 mps 738 mmHg 92%
    12:00 +29°C° 0.8 mm 1 mps 737 mmHg 91%
    13:00 +29°C° 0.8 mm 1 mps 737 mmHg 89%
    14:00 +29°C° 0.6 mm 1 mps 736 mmHg 88%
    15:00 +29°C° 0.6 mm 1 mps 735 mmHg 86%
    16:00 +27°C° 0.6 mm 0 mps 735 mmHg 85%
    17:00 +26°C° 0.3 mm 0 mps 735 mmHg 88%
    18:00 +25°C° 0.3 mm 0 mps 736 mmHg 92%
    19:00 +24°C° 0.3 mm 0 mps 736 mmHg 95%
    20:00 +24°C° 0 mm 0 mps 737 mmHg 96%
    21:00 +23°C° 0 mm 0 mps 737 mmHg 96%
    22:00 +23°C° 0 mm 0 mps 738 mmHg 96%
    23:00 +23°C° 0.3 mm 0 mps 737 mmHg 97%

    26 March, Tuesday

    Time Temperature Precipitation Wind Pressure Humidity
    00:00 +23°C° 0.3 mm 0 mps 737 mmHg 98%
    01:00 +22°C° 0.3 mm 0 mps 737 mmHg 99%
    02:00 +22°C° 0.3 mm 0 mps 737 mmHg 99%
    03:00 +22°C° 0.3 mm 0 mps 736 mmHg 99%
    04:00 +22°C° 0.3 mm 0 mps 736 mmHg 99%
    05:00 +23°C° 0 mm 0 mps 737 mmHg 99%
    06:00 +23°C° 0 mm 0 mps 738 mmHg 98%
    07:00 +23°C° 0 mm 0 mps 739 mmHg 98%
    08:00 +26°C° 1.2 mm 1 mps 739 mmHg 97%
    09:00 +27°C° 1.2 mm 1 mps 739 mmHg 96%
    10:00 +27°C° 1.2 mm 1 mps 739 mmHg 96%
    11:00 +28°C° 1.1 mm 1 mps 738 mmHg 93%
    12:00 +27°C° 1.1 mm 0 mps 738 mmHg 91%
    13:00 +27°C° 1.1 mm 0 mps 737 mmHg 89%
    14:00 +27°C° 1.6 mm 0 mps 736 mmHg 91%
    15:00 +28°C° 1.6 mm 1 mps 736 mmHg 94%
    16:00 +27°C° 1.6 mm 1 mps 736 mmHg 97%
    17:00 +27°C° 1.4 mm 1 mps 736 mmHg 97%
    18:00 +26°C° 1.4 mm 1 mps 737 mmHg 98%
    19:00 +25°C° 1.4 mm 1 mps 737 mmHg 98%
    20:00 +25°C° 1.6 mm 1 mps 738 mmHg 98%
    21:00 +25°C° 1.6 mm 1 mps 739 mmHg 98%
    22:00 +24°C° 1.6 mm 2 mps 739 mmHg 99%
    23:00 +24°C° 1.8 mm 2 mps 739 mmHg 99%

    27 March, Wednesday

    Time Temperature Precipitation Wind Pressure Humidity
    00:00 +24°C° 1.8 mm 1 mps 738 mmHg 99%
    01:00 +24°C° 1.8 mm 1 mps 738 mmHg 99%
    02:00 +24°C° 1.2 mm 2 mps 738 mmHg 99%
    03:00 +23°C° 1.2 mm 2 mps 738 mmHg 99%
    04:00 +23°C° 1.2 mm 2 mps 738 mmHg 99%
    05:00 +23°C° 1.5 mm 2 mps 738 mmHg 99%
    06:00 +23°C° 1.5 mm 2 mps 739 mmHg 99%
    07:00 +23°C° 1.5 mm 2 mps 740 mmHg 99%
    08:00 +23°C° 2 mm 2 mps 740 mmHg 99%
    09:00 +23°C° 2 mm 2 mps 740 mmHg 98%
    10:00 +23°C° 2 mm 2 mps 741 mmHg 98%
    11:00 +21°C° 2.3 mm 2 mps 740 mmHg 98%
    12:00 +21°C° 2.3 mm 2 mps 740 mmHg 98%
    13:00 +21°C° 2.3 mm 2 mps 739 mmHg 98%
    14:00 +21°C° 1.1 mm 2 mps 739 mmHg 98%
    15:00 +21°C° 1.1 mm 2 mps 738 mmHg 99%
    16:00 +21°C° 1.1 mm 2 mps 738 mmHg 99%
    17:00 +21°C° 0.1 mm 2 mps 738 mmHg 98%
    18:00 +21°C° 0.1 mm 2 mps 739 mmHg 98%
    19:00 +22°C° 0.1 mm 1 mps 739 mmHg 98%
    20:00 +22°C° 0 mm 1 mps 739 mmHg 98%
    21:00 +22°C° 0 mm 1 mps 740 mmHg 98%
    22:00 +21°C° 0 mm 1 mps 740 mmHg 98%
    23:00 +21°C° 0 mm 1 mps 740 mmHg 98%
    Show more